sat.trackr.live / text

‹ back to catalog

STARLINK-4627

NORAD 53711 · 2022-107M

PAYLOAD ACTIVE UNKNOWN

§ Identity

Operator
Country
US
Launch date
2022-09-05
Launch site
AFETR
Launch vehicle
Mass (kg)
RCS (m²)

Purposes: comms

External: N2YO · Heavens-Above · Gunter

§ Orbital elements

Epoch: 2026-05-25T01:03:55.087776Z

Period
95.44 min
Inclination
53.2137°
Eccentricity
0.0001465
Mean motion
15.08830732 rev/d
Perigee alt
538.8 km
Apogee alt
540.8 km
Semi-major
6,917.9 km
B*
1.4489e-4
RAAN
266.1533°
Arg perigee
91.6951°
Mean anomaly
268.4209°
Rev number
20,600

§ Raw data

STARLINK-46271 53711U 22107M   26145.04438759  .00002018  00000+0  14489-3 0  99962 53711  53.2137 266.1533 0001465  91.6951 268.4209 15.08830732206009

JSON: /api/v1/satellites/53711 · /tle

For live sub-satellite position, see the globe view (requires WebGL).

§ Visibility from observer

Set your observer location to see the next 7 days of passes ≥ 10°. The values pass through the URL so the page stays shareable.

No JS? Fill the form by hand. The geolocation button needs JavaScript.